www.pogodaiklimat.ru

Погода и климат >> Архив погоды >> Испания >> Оренсе


ПОГОДА в Оренсе

  • Прогноз погоды в Оренсе
  • Монитор погоды в Оренсе

АРХИВ ПОГОДЫ в Оренсе

Время (UTC), дата Ветер
(напр.,м/с)
 
Видим.   Явления Облачность Т
(С)
Тd
(С)
f
(%)
Тe
(С)
Тes
(С)
Комфортность P
(гПа)
Po
(гПа)
Тmin
(С)
Tmax
(С)
R
(мм)
R24
(мм)
S
(см)
01 10.07 С 1 20 км н/о +20.1 +13.8 67 +23 +23 комфорт 1016.6 999.5
02 10.07 ЮВ 1 20 км н/о +18.4 +13.9 75 +20 +20 1016.8 999.6
03 10.07 Ю 1 20 км н/о +17.4 +13.5 78 +19 +19 1016.6 999.3
04 10.07 ЮВ 1 20 км н/о +16.8 +13.3 80 +18 +18 1016.7 999.4
05 10.07 З 1 20 км н/о +16.0 +12.9 82 +17 +17 1016.8 999.4
06 10.07 З 1 20 км ясно +15.7 +13.0 84 +17 +18 1017.1 999.7 +15.6
07 10.07 Ю 1 20 км н/о +17.3 +13.6 79 +19 +19 1016.9 999.6
08 10.07 С 1 20 км н/о +19.7 +14.9 74 +23 +23 комфорт 1016.9 999.7
09 10.07 СВ 1 20 км ясно +23.1 +15.7 63 +27 +40 душно 1016.3 999.4
10 10.07 З 2 20 км н/о +26.1 +15.2 51 +29 +29 жарко 1015.5 998.7
11 10.07 З 2 20 км н/о +29.1 +14.1 40 +31 +31 жарко 1014.9 998.3
12 10.07 С 2 19 км 1/1 300 м
[Cu med, cong]
+31.3 +14.0 35 +33 +52 опасность
солнечного
удара
1014.4 997.9
13 10.07 СЗ 2 20 км н/о +32.1 +13.8 33 +33 +33 жарко 1013.6 997.2
14 10.07 СЗ 1 20 км н/о +33.4 +13.5 30 +34 +34 очень
жарко
1013.0 996.7
15 10.07 ЮЗ 2 20 км н/о +35.2 +12.2 25 +35 +35 очень
жарко
1012.3 996.1
16 10.07 З 2 20 км н/о +35.3 +13.5 27 +36 +36 очень
жарко
1011.7 995.5
17 10.07 СЗ 2 20 км н/о +35.0 +14.8 30 +36 +36 очень
жарко
1011.5 995.3
18 10.07 С 1 20 км н/о +34.4 +13.3 28 +35 +35 очень
жарко
1011.6 995.3 +35.5
19 10.07 ЮЗ 1 20 км н/о +33.8 +14.3 31 +35 +35 очень
жарко
1011.9 995.6
20 10.07 З 1 20 км н/о +30.7 +14.8 38 +33 +33 душно 1012.4 995.9 0.0
21 10.07 С 1 20 км н/о +28.7 +15.9 46 +32 +32 душно 1013.5 996.9 0.0
22 10.07 З 2 20 км н/о +26.9 +16.5 53 +30 +30 душно 1014.2 997.5
23 10.07 Ю 1 20 км н/о +24.4 +16.1 60 +28 +28 душно 1014.5 997.7
00 11.07 З 1 20 км н/о +22.5 +15.6 65 +26 +26 жарко 1014.9 997.9
01 11.07 Ю 1 20 км н/о +20.8 +15.1 70 +25 +25 комфорт 1015.0 997.9
02 11.07 ЮЗ 1 20 км н/о +19.9 +15.1 74 +24 +24 комфорт 1014.9 997.8
03 11.07 Ю 1 20 км н/о +18.7 +14.6 77 +21 +21 комфорт 1014.7 997.5
04 11.07 З 1 20 км н/о +17.8 +14.3 80 +19 +19 1014.8 997.6
05 11.07 Ю 1 19 км н/о +17.0 +13.9 82 +19 +19 1015.2 997.9
06 11.07 ЮЗ 1 19 км ясно +16.7 +13.8 83 +18 +19 1015.5 998.2 +16.6
07 11.07 Ю 1 19 км н/о +18.2 +14.5 79 +20 +20 1015.3 998.1
08 11.07 З 1 20 км н/о +21.0 +15.1 69 +25 +25 комфорт 1015.2 998.2
09 11.07 З 2 20 км ясно +23.8 +15.3 59 +27 +37 жарко 1014.9 998.0
10 11.07 ЮЗ 1 20 км н/о +27.0 +15.4 49 +30 +30 душно 1014.3 997.6
11 11.07 З 2 20 км н/о +30.2 +14.3 38 +32 +32 жарко 1013.7 997.2
12 11.07 З 1 20 км ясно +33.1 +13.7 31 +34 +57 опасность
солнечного
удара
1013.0 996.6
13 11.07 СВ 1 20 км н/о +34.8 +11.2 24 +34 +34 очень
жарко
1012.4 996.1
14 11.07 С 2 20 км н/о +35.5 +14.2 28 +36 +36 очень
жарко
1011.8 995.6
15 11.07 З 2 20 км н/о +36.7 +14.1 26 +37 +37 очень
жарко
1011.2 995.1
16 11.07 З 2 20 км н/о +37.4 +14.1 25 +38 +38 душно 1011.0 994.9
17 11.07 ЮЗ 1 20 км н/о +37.0 +14.9 27 +38 +38 душно 1010.6 994.5
18 11.07 З 3 20 км н/о +35.3 +16.1 32 +38 +38 очень
душно
1011.0 994.8 +37.5
19 11.07 З 3 20 км н/о +33.2 +16.5 37 +36 +36 очень
душно
1011.7 995.4
20 11.07 СВ 1 20 км н/о +30.5 +16.1 42 +34 +34 очень
душно
1012.9 996.4
21 11.07 СЗ 1 20 км н/о +28.7 +15.2 44 +31 +31 жарко 1014.0 997.4
22 11.07 С 1 20 км н/о +27.4 +16.4 51 +31 +31 душно 1014.6 997.9
23 11.07 СВ 1 20 км н/о +25.9 +13.7 47 +28 +28 жарко 1014.8 998.0
00 12.07 В 1 20 км н/о +24.8 +12.7 47 +27 +27 жарко 1014.6 997.8
01 12.07 В 1 20 км н/о +22.8 +13.3 55 +26 +26 жарко 1014.5 997.6
02 12.07 ЮЗ 1 20 км н/о +21.0 +13.7 63 +25 +25 комфорт 1014.5 997.5
03 12.07 ЮЗ 1 20 км н/о +19.7 +13.8 69 +23 +23 комфорт 1014.5 997.4
04 12.07 ЮВ 1 20 км н/о +18.6 +13.7 73 +21 +21 комфорт 1014.8 997.6
05 12.07 ЮЗ 1 20 км н/о +17.6 +13.5 77 +19 +19 1015.3 998.0
06 12.07 ЮЗ 1 20 км ясно +17.2 +13.3 78 +19 +19 1015.8 998.5 +17.2
07 12.07 Ю 1 20 км н/о +18.8 +13.9 73 +21 +21 комфорт 1015.7 998.5
08 12.07 ЮВ 1 12 км н/о +21.4 +14.8 66 +24 +24 комфорт 1015.7 998.7
09 12.07 ЮВ 1 20 км 1/0
[Ci sp]
+24.1 +15.6 59 +27 +38 жарко 1015.0 998.1
10 12.07 В 2 1600 м н/о +27.2 +16.2 51 +31 +31 душно 1014.5 997.8
11 12.07 З 2 20 км н/о +30.0 +17.5 47 +34 +34 очень
душно
1013.9 997.4
12 12.07 СЗ 2 20 км 6/0
[Cs]
+32.6 +16.0 37 +35 +53 опасность
солнечного
удара
1013.5 997.1
13 12.07 СВ 1 20 км н/о +34.5 +17.3 36 +38 +38 очень
душно
1012.9 996.6
14 12.07 Ю 2 20 км н/о +36.1 +17.8 34 +40 +40 очень
душно
1012.4 996.2
15 12.07 В 1 20 км н/о +37.2 +17.7 32 +41 +41 опасность
перегрева
1011.7 995.6
16 12.07 СЗ 2 20 км н/о +37.3 +17.3 31 +40 +40 очень
душно
1011.3 995.2 0.0
17 12.07 ЮЗ 1 20 км н/о +36.0 +18.1 35 +40 +40 очень
душно
1011.3 995.2
18 12.07 ЮЗ 2 20 км дымка н/о +35.3 +18.8 38 +40 +40 очень
душно
1011.4 995.2 +37.3 0.0
19 12.07 Ю 2 20 км н/о +32.7 +18.5 43 +37 +37 очень
душно
1012.6 996.3
20 12.07 С 2 20 км н/о +31.5 +18.8 47 +37 +37 очень
душно
1012.5 996.1
21 12.07 З 2 20 км в посл. час дождь н/о +29.4 +19.4 55 +35 +35 очень
душно
1012.7 996.2 0.0
22 12.07 С 1 20 км н/о +28.4 +18.5 55 +33 +33 очень
душно
1013.0 996.4
23 12.07 С 1 20 км н/о +26.8 +17.6 57 +31 +31 душно 1013.2 996.5
00 13.07 С 1 20 км дымка н/о +24.9 +16.6 60 +28 +28 жарко 1013.6 996.8
01 13.07 Ю 1 20 км н/о +23.4 +16.0 63 +28 +28 душно 1013.3 996.4
02 13.07 СВ 1 20 км н/о +22.5 +15.6 65 +26 +26 жарко 1013.4 996.5
03 13.07 СВ 1 20 км н/о +21.9 +15.7 68 +26 +26 душно 1013.3 996.3
04 13.07 С 1 20 км н/о +21.2 +15.7 71 +24 +24 комфорт 1013.1 996.1
05 13.07 В 1 20 км н/о +20.4 +15.6 74 +25 +25 комфорт 1013.4 996.4
06 13.07 СВ 1 20 км дымка н/о +20.3 +15.9 76 +24 +24 комфорт 1013.6 996.5 +20.3
07 13.07 С 1 20 км н/о +21.6 +16.5 73 +25 +25 комфорт 1013.4 996.4
08 13.07 СВ 2 10 км сильн. дождь н/о +21.8 +18.2 80 +27 +27 душно 1013.4 996.5 2
09 13.07 С 1 19 км н/о +22.2 +17.3 74 +27 +27 душно 1013.2 996.3 2
10 13.07 СВ 1 20 км н/о +25.2 +18.2 65 +30 +30 душно 1012.4 995.7 0.0
11 13.07 З 1 20 км н/о +27.9 +18.0 55 +32 +32 душно 1012.7 996.1
12 13.07 В 1 19 км дымка н/о +28.3 +18.1 54 +33 +33 очень
душно
1012.3 995.7 0.0
13 13.07 В 2 17 км слаб. морось н/о +25.7 +21.8 79 +33 +33 очень
душно
1012.5 995.8 1
14 13.07 Ю 2 20 км н/о +27.4 +21.4 70 +35 +35 очень
душно
1012.5 995.9
15 13.07 СВ 2 1200 м град {дождь} н/о +24.6 +20.1 76 +30 +30 очень
душно
1014.2 997.4 10
16 13.07 З 2 4900 м дождь н/о +19.7 +16.9 84 +23 +23 комфорт 1015.0 997.9 5
17 13.07 С 1 20 км в посл. час дождь н/о +18.2 +16.0 87 +20 +20 1015.8 998.6 2
18 13.07 ЮЗ 1 20 км дымка н/о +18.2 +16.5 90 +20 +20 1016.1 998.9 +29.0 6
19 13.07 ЮВ 1 20 км н/о +18.4 +16.7 90 +20 +20 1014.9 997.7
20 13.07 СВ 1 20 км н/о +18.4 +16.2 87 +21 +21 комфорт 1014.7 997.5
21 13.07 В 1 19 км н/о +17.6 +15.9 90 +19 +19 1015.5 998.3
22 13.07 С 1 18 км н/о +17.2 +15.7 91 +19 +19 1016.4 999.1
23 13.07 Ю 1 7000 м н/о +17.1 +15.6 91 +18 +18 1016.8 999.5
00 14.07 В 1 16 км н/о +17.1 +15.6 91 +19 +19 1016.3 999.0
01 14.07 ЮВ 1 20 км н/о +17.1 +15.8 92 +19 +19 1016.3 999.0
02 14.07 ЮВ 1 19 км н/о +17.2 +15.7 91 +19 +19 1015.9 998.6
03 14.07 С 1 20 км н/о +17.3 +15.8 91 +19 +19 1015.5 998.2
04 14.07 штиль 0 19 км н/о +17.5 +16.0 91 +17 +17 1015.2 998.0
05 14.07 СВ 1 20 км н/о +17.3 +15.6 90 +19 +19 1015.5 998.2
06 14.07 СВ 1 20 км н/о +17.5 +15.7 89 +19 +19 1015.2 998.0 +16.9
07 14.07 С 1 20 км н/о +17.8 +15.8 88 +19 +19 1015.6 998.4
08 14.07 ЮЗ 1 20 км н/о +18.5 +16.1 86 +20 +20 1015.9 998.7
09 14.07 З 1 20 км н/о +19.6 +16.2 81 +23 +23 комфорт 1015.8 998.7
10 14.07 Ю 1 20 км н/о +20.9 +16.1 74 +25 +25 комфорт 1015.9 998.8
11 14.07 Ю 1 20 км н/о +23.3 +16.6 66 +28 +28 душно 1015.5 998.6
12 14.07 З 2 20 км н/о +25.4 +17.6 62 +30 +30 душно 1015.1 998.3
13 14.07 СЗ 1 20 км н/о +26.6 +17.4 57 +31 +31 душно 1014.4 997.7 0.0
14 14.07 З 2 20 км н/о +28.5 +18.6 55 +34 +34 очень
душно
1013.7 997.1
15 14.07 З 2 20 км н/о +30.2 +18.0 48 +35 +35 очень
душно
1013.0 996.5 0.0
16 14.07 З 2 20 км н/о +31.7 +17.6 43 +36 +36 очень
душно
1012.5 996.1 0.0
17 14.07 З 2 20 км н/о +32.0 +17.5 42 +36 +36 очень
душно
1012.2 995.8
18 14.07 З 2 20 км дымка н/о +31.7 +16.8 41 +35 +35 очень
душно
1012.1 995.7 +32.2 0.0
19 14.07 З 3 20 км н/о +31.0 +18.4 47 +36 +36 очень
душно
1012.2 995.8
20 14.07 З 2 20 км н/о +28.7 +17.9 52 +33 +33 очень
душно
1012.8 996.2
21 14.07 С 1 20 км н/о +26.0 +17.9 61 +30 +30 душно 1013.6 996.9
22 14.07 С 2 20 км н/о +24.3 +17.3 65 +28 +28 душно 1014.2 997.4
23 14.07 С 1 20 км н/о +22.7 +16.5 68 +27 +27 душно 1014.5 997.6
00 15.07 В 1 20 км н/о +21.7 +16.2 71 +25 +25 комфорт 1014.8 997.8
01 15.07 С 1 20 км н/о +20.6 +16.0 75 +25 +25 комфорт 1014.9 997.8
02 15.07 В 1 20 км н/о +19.5 +16.0 80 +23 +23 комфорт 1014.7 997.6
03 15.07 В 1 19 км н/о +18.3 +15.5 84 +20 +20 1014.4 997.2
04 15.07 ЮВ 1 19 км н/о +17.8 +15.4 86 +19 +19 1014.6 997.4
05 15.07 ЮВ 1 20 км н/о +17.9 +15.5 86 +19 +19 1015.0 997.8
06 15.07 Ю 1 20 км 10/10 300 м
[St]
+18.0 +15.6 86 +19 +19 1015.1 997.9 +17.8
07 15.07 ЮЗ 1 11 км н/о +18.6 +16.2 86 +21 +21 комфорт 1015.9 998.7
08 15.07 ЮВ 2 15 км н/о +19.3 +16.1 82 +22 +22 комфорт 1015.8 998.7
09 15.07 ЮЗ 1 16 км 10/10 300 м
[St]
+20.0 +16.2 79 +24 +24 комфорт 1015.7 998.6
10 15.07 СВ 1 20 км н/о +21.5 +16.7 74 +25 +25 комфорт 1015.6 998.6
11 15.07 ЮЗ 2 20 км н/о +24.5 +17.2 64 +28 +28 душно 1015.1 998.3
12 15.07 З 2 20 км 4/1 300 м
[Cu hum Cs]
+26.3 +17.4 58 +30 +48 душно 1014.7 998.0
13 15.07 СВ 2 20 км н/о +27.5 +17.7 55 +32 +32 очень
душно
1014.1 997.5
14 15.07 ЮЗ 2 20 км н/о +29.8 +17.6 48 +34 +34 очень
душно
1013.5 997.0
15 15.07 ЮЗ 2 20 км н/о +31.1 +18.1 46 +36 +36 очень
душно
1013.0 996.6
16 15.07 З 2 20 км н/о +31.5 +18.1 45 +36 +36 очень
душно
1012.5 996.1
17 15.07 СВ 2 20 км н/о +31.3 +17.6 44 +35 +35 очень
душно
1012.3 995.9
18 15.07 СВ 1 20 км н/о +30.2 +14.3 38 +32 +32 жарко 1012.7 996.2 +31.8
19 15.07 СВ 2 20 км н/о +29.3 +16.5 46 +33 +33 душно 1013.0 996.5 0.0
20 15.07 СВ 1 20 км н/о +26.1 +16.1 54 +29 +29 жарко 1014.0 997.3 0.0
21 15.07 СВ 1 20 км н/о +23.7 +15.2 59 +27 +27 жарко 1014.9 998.0 0.0
22 15.07 СЗ 1 20 км н/о +22.1 +14.7 63 +25 +25 комфорт 1015.6 998.6
23 15.07 З 1 20 км н/о +20.8 +14.9 69 +25 +25 комфорт 1016.0 998.9
00 16.07 З 1 19 км дымка н/о +20.0 +15.0 73 +23 +23 комфорт 1016.0 998.9
01 16.07 СЗ 1 20 км н/о +20.1 +15.3 74 +24 +24 комфорт 1015.8 998.7
02 16.07 В 1 20 км н/о +20.1 +15.3 74 +24 +24 комфорт 1015.4 998.3
03 16.07 С 1 20 км н/о +20.1 +15.1 73 +24 +24 комфорт 1015.2 998.1
04 16.07 С 1 20 км н/о +19.9 +15.1 74 +23 +23 комфорт 1015.2 998.1
05 16.07 С 1 20 км н/о +19.6 +14.6 73 +23 +23 комфорт 1015.3 998.2
06 16.07 СВ 1 20 км 10/10 300 м
[St]
+19.5 +14.5 73 +22 +22 комфорт 1015.5 998.4 +19.3
07 16.07 С 1 20 км н/о +19.3 +14.3 73 +22 +22 комфорт 1015.9 998.7
08 16.07 С 1 20 км н/о +19.5 +14.3 72 +22 +22 комфорт 1016.1 998.9
09 16.07 СВ 2 20 км 9/9 300 м
[St Ci fib]
+20.6 +14.3 67 +24 +25 комфорт 1015.7 998.6
10 16.07 С 1 18 км н/о +22.8 +14.6 60 +26 +26 жарко 1015.1 998.2
11 16.07 С 2 20 км н/о +25.4 +15.1 53 +28 +28 жарко 1014.4 997.6
12 16.07 СЗ 2 20 км 4/1 300 м
[Cu hum Ac cast Ci sp]
+27.3 +15.0 47 +30 +44 душно 1013.5 996.8
13 16.07 СВ 2 20 км н/о +29.1 +16.0 45 +32 +32 душно 1012.6 996.1
14 16.07 СЗ 2 20 км н/о +30.0 +15.3 41 +33 +33 душно 1012.3 995.8
15 16.07 СЗ 2 20 км н/о +30.5 +16.1 42 +34 +34 очень
душно
1011.9 995.4
17 16.07 С 2 20 км н/о +28.5 +16.7 49 +32 +32 душно 1011.9 995.3
18 16.07 С 1 20 км н/о +26.3 +16.2 54 +30 +30 душно 1012.6 995.9 +30.9
19 16.07 СВ 2 20 км н/о +24.6 +15.2 56 +28 +28 душно 1013.3 996.5
20 16.07 С 1 20 км н/о +22.7 +14.8 61 +26 +26 жарко 1014.0 997.1
21 16.07 С 1 20 км н/о +21.1 +14.5 66 +24 +24 комфорт 1014.9 997.9
22 16.07 С 1 20 км н/о +20.2 +14.3 69 +24 +24 комфорт 1015.4 998.3
23 16.07 С 1 20 км н/о +19.8 +14.4 71 +23 +23 комфорт 1015.7 998.6

 

Местоположение метеостанции Оренсе (Испания): широта 42.33 долгота -7.87 высота над уровнем моря 128 м.

В архиве по умолчанию представлена погода в Оренсе за последнюю неделю. Архивные данные за месяц целиком и за предыдущие месяцы, начиная с января 2011 года, Вы можете получить, выбрав интересующий диапазон дат из раскрывающегося списка и нажав кнопку "Ввод!".


*Определитесь, кто Вы:
робот инопланетянин человек

Внимание! Время в таблицах - всемирное. Для получения местного времени необходимо прибавить поправку, которая равна 1 ч.

Смотрите также архив погоды в соседних городах и на ближайших метеорологических станциях:

Погода в Карбальино (Испания) (21 км)
Погода в Хинсо-де-Лимии (Испания) (30 км)
Погода в Побра-де-Тривес-Сане (Испания) (49 км)
Погода в Понтеведре (Испания) (63 км)
Погода в Виго (Испания) (64 км)
Погода в Падроне (Испания) (77 км)
Погода в Сантьяго (Испания) (78 км)
Погода в Сантьяго-де-Компостеле (Испания) (83 км)
Погода в Луго (Испания) (94 км)
Погода в Понферраде (Испания) (108 км)

Пояснения к столбцам:

Ветер - указаны скорость ветра в м/с - средняя за 10 мин, порывы в срок и между сроками (в фигурных скобках) и направление, откуда дует ветер: С - северный, СВ - северо-восточный, В - восточный, ЮВ - юго-восточный, Ю - южный, ЮЗ - юго-западный, З - западный, СЗ - северо-западный.
Видимость - горизонтальная дальность видимости в метрах или километрах. При видимости от 1 до 10 км при отсутствии осадков обычно наблюдается дымка, при ухудшении видимости до 1 км и менее - туман. В сухую погоду видимость может ухудшаться дымом, пылью или мглою.
Явления - указаны атмосферные явления, наблюдавшиеся в срок или в последний час перед сроком; фигурными скобками обозначены явления, наблюдавшиеся между сроками (за 1-3 часа до срока); квадратными скобками обозначены град или гололедные отложения с указанием их диаметра в мм.
Облачность - указаны через наклонную черту общая и нижняя облачность в баллах и высота нижней границы облаков в метрах; квадратными скобками обозначены формы облаков: Ci - перистые, Cs - перисто-слоистые, Cc - перисто-кучевые, Ac - высококучевые, As - высокослоистые, Sc - слоисто-кучевые, Ns - слоисто-дождевые, Cu - кучевые, Cb - кучево-дождевые. Подробнее классификацию облаков см. в Атласе облаков (PDF).
T - Температура воздуха - температура, измеренная на высоте 2 м над землей.
Td - Температура точки росы - температура, при понижении до которой содержащийся в воздухе водяной пар достигнет насыщения.
f - Относительная влажность воздуха - влажноcть воздуха, измеренная на высоте 2 м над землей.
Te - Эффективная температура - температура, которую ощущает одетый по сезону человек в тени. Характеристика душности погоды. При расчете учитывается влияние влажности воздуха и скорости ветра на теплоощущения человека.
Tes - Эффективная температура на солнце - температура, которую ощущает человек, с поправкой на солнечный нагрев. Характеристика знойности погоды. Зависит от высоты солнца над горизонтом, облачности и скорости ветра. Ночью, в пасмурную погоду, а также при ветре 12 м/с и более поправка равна нулю.
P - Атмосферное давление - приведенное к уровню моря атмосферное давление.
Po - Атмосферное давление - измеренное на уровне метеостанции атмосферное давление.
Tmin - Минимальная температура - минимум температуры воздуха на высоте 2 м над землей.
Tmax - Максимальная температура - максимум температуры воздуха на высоте 2 м над землей.
R - Количество осадков - Количество выпавших осадков за период времени, мм. При наведении курсора мыши на число - период времени, за который выпало указанное количество осадков.
R24 - Количество осадков - Количество выпавших осадков за 24 часа, мм.
S - Снежный покров - Высота снежного покрова, см. При наведении курсора мыши на число - состояние снежного покрова и степень покрытия местности в баллах.